Time,TemperatureF,DewpointF,PressureIn,WindDirection,WindDirectionDegrees,WindSpeedMPH,WindSpeedGustMPH,Humidity,HourlyPrecipIn,Conditions,Clouds,dailyrainin,SolarRadiationWatts/m^2,SoftwareType,DateUTC
2013-01-16 00:14:00,26.3,24.0,29.87,North,6,0.0,-999.0,91,-99.99,,,0.00,0,weatherlink.com 1.10,2013-01-15 23:14:00,
2013-01-16 00:29:00,26.3,24.0,29.87,North,6,0.0,-999.0,91,-99.99,,,0.00,0,weatherlink.com 1.10,2013-01-15 23:29:00,
2013-01-16 00:44:00,26.3,24.0,29.87,North,6,0.0,-999.0,91,-99.99,,,0.00,0,weatherlink.com 1.10,2013-01-15 23:44:00,
2013-01-16 00:59:00,26.3,24.0,29.87,North,6,0.0,-999.0,91,-99.99,,,0.00,0,weatherlink.com 1.10,2013-01-15 23:59:00,
2013-01-16 01:14:00,26.3,24.0,29.87,North,6,0.0,-999.0,91,-99.99,,,0.00,0,weatherlink.com 1.10,2013-01-16 00:14:00,
2013-01-16 01:29:00,26.3,24.0,29.87,North,6,0.0,-999.0,91,-99.99,,,0.00,0,weatherlink.com 1.10,2013-01-16 00:29:00,
2013-01-16 01:44:00,26.2,24.0,29.87,North,6,0.0,-999.0,91,-99.99,,,0.00,0,weatherlink.com 1.10,2013-01-16 00:44:00,
2013-01-16 01:59:00,26.3,24.0,29.88,North,6,0.0,-999.0,91,-99.99,,,0.00,0,weatherlink.com 1.10,2013-01-16 00:59:00,
2013-01-16 02:14:00,26.3,24.0,29.87,North,6,0.0,-999.0,91,-99.99,,,0.00,0,weatherlink.com 1.10,2013-01-16 01:14:00,
2013-01-16 02:29:00,26.3,24.0,29.87,North,6,0.0,-999.0,91,-99.99,,,0.00,0,weatherlink.com 1.10,2013-01-16 01:29:00,
2013-01-16 02:44:00,26.3,24.0,29.87,North,6,0.0,-999.0,91,-99.99,,,0.00,0,weatherlink.com 1.10,2013-01-16 01:44:00,
2013-01-16 02:59:00,26.4,24.0,29.87,North,6,0.0,-999.0,92,-99.99,,,0.00,0,weatherlink.com 1.10,2013-01-16 01:59:00,
2013-01-16 03:14:00,26.4,24.0,29.87,North,6,0.0,-999.0,92,-99.99,,,0.00,0,weatherlink.com 1.10,2013-01-16 02:14:00,
2013-01-16 03:29:00,26.5,25.0,29.87,North,6,0.0,-999.0,92,-99.99,,,0.00,0,weatherlink.com 1.10,2013-01-16 02:29:00,
2013-01-16 03:44:00,26.5,25.0,29.86,North,6,0.0,-999.0,92,-99.99,,,0.00,0,weatherlink.com 1.10,2013-01-16 02:44:00,
2013-01-16 03:59:00,26.6,25.0,29.86,NE,42,0.0,-999.0,92,-99.99,,,0.00,0,weatherlink.com 1.10,2013-01-16 02:59:00,
2013-01-16 04:14:00,26.6,25.0,29.86,NE,42,0.0,-999.0,92,-99.99,,,0.00,0,weatherlink.com 1.10,2013-01-16 03:14:00,
2013-01-16 04:29:00,26.5,25.0,29.86,NE,42,0.0,-999.0,92,-99.99,,,0.00,0,weatherlink.com 1.10,2013-01-16 03:29:00,
2013-01-16 04:44:00,26.6,25.0,29.85,NE,42,0.0,-999.0,92,-99.99,,,0.00,0,weatherlink.com 1.10,2013-01-16 03:44:00,
2013-01-16 04:59:00,26.6,25.0,29.85,NE,42,0.0,-999.0,92,-99.99,,,0.00,0,weatherlink.com 1.10,2013-01-16 03:59:00,
2013-01-16 05:14:00,26.6,26.0,29.85,NE,42,0.0,-999.0,99,-99.99,,,0.00,0,weatherlink.com 1.10,2013-01-16 04:14:00,
2013-01-16 05:29:00,26.6,25.0,29.85,NE,42,0.0,-999.0,92,-99.99,,,0.00,0,weatherlink.com 1.10,2013-01-16 04:29:00,
2013-01-16 05:44:00,26.6,26.0,29.85,NE,42,0.0,-999.0,99,-99.99,,,0.00,0,weatherlink.com 1.10,2013-01-16 04:44:00,
2013-01-16 05:59:00,26.6,26.0,29.85,NE,42,0.0,-999.0,99,-99.99,,,0.00,0,weatherlink.com 1.10,2013-01-16 04:59:00,
2013-01-16 06:14:00,26.6,25.0,29.85,NE,42,0.0,-999.0,92,-99.99,,,0.00,0,weatherlink.com 1.10,2013-01-16 05:14:00,
2013-01-16 06:29:00,26.6,25.0,29.85,NE,42,0.0,-999.0,92,-99.99,,,0.00,0,weatherlink.com 1.10,2013-01-16 05:29:00,
2013-01-16 06:44:00,26.5,25.0,29.86,NE,42,0.0,-999.0,92,-99.99,,,0.00,0,weatherlink.com 1.10,2013-01-16 05:44:00,
2013-01-16 06:59:00,26.5,25.0,29.86,NE,42,0.0,-999.0,92,-99.99,,,0.00,0,weatherlink.com 1.10,2013-01-16 05:59:00,
2013-01-16 07:14:00,26.5,25.0,29.86,NNE,12,0.0,-999.0,92,-99.99,,,0.00,0,weatherlink.com 1.10,2013-01-16 06:14:00,
2013-01-16 07:29:00,26.5,25.0,29.87,NNE,12,0.0,-999.0,92,-99.99,,,0.00,0,weatherlink.com 1.10,2013-01-16 06:29:00,
2013-01-16 07:44:00,26.5,25.0,29.86,NNE,12,0.0,-999.0,92,-99.99,,,0.00,0,weatherlink.com 1.10,2013-01-16 06:44:00,
2013-01-16 07:59:00,26.4,24.0,29.87,NNE,16,0.0,-999.0,92,-99.99,,,0.00,0,weatherlink.com 1.10,2013-01-16 06:59:00,
2013-01-16 08:14:00,26.3,24.0,29.86,NNE,16,0.0,-999.0,92,-99.99,,,0.00,0,weatherlink.com 1.10,2013-01-16 07:14:00,
2013-01-16 08:29:00,26.3,24.0,29.87,NNE,16,0.0,-999.0,92,-99.99,,,0.00,0,weatherlink.com 1.10,2013-01-16 07:29:00,
2013-01-16 08:44:00,26.3,24.0,29.88,NNE,16,0.0,-999.0,92,-99.99,,,0.00,0,weatherlink.com 1.10,2013-01-16 07:44:00,
2013-01-16 08:59:00,26.3,24.0,29.88,NNE,16,0.0,-999.0,92,-99.99,,,0.00,0,weatherlink.com 1.10,2013-01-16 07:59:00,
2013-01-16 09:14:00,26.3,24.0,29.87,NNE,16,0.0,-999.0,92,-99.99,,,0.00,5,weatherlink.com 1.10,2013-01-16 08:14:00,
2013-01-16 09:29:00,26.4,24.0,29.88,NNE,16,0.0,-999.0,92,-99.99,,,0.00,7,weatherlink.com 1.10,2013-01-16 08:29:00,
2013-01-16 09:44:00,26.4,24.0,29.88,NNE,16,0.0,-999.0,92,-99.99,,,0.00,9,weatherlink.com 1.10,2013-01-16 08:44:00,
2013-01-16 09:59:00,26.5,25.0,29.88,NNE,16,0.0,-999.0,92,-99.99,,,0.00,12,weatherlink.com 1.10,2013-01-16 08:59:00,
2013-01-16 10:14:00,26.6,25.0,29.88,NNE,16,0.0,-999.0,92,-99.99,,,0.00,16,weatherlink.com 1.10,2013-01-16 09:14:00,
2013-01-16 10:29:00,26.8,25.0,29.88,NNE,16,0.0,-999.0,92,-99.99,,,0.00,16,weatherlink.com 1.10,2013-01-16 09:29:00,
2013-01-16 10:44:00,27.0,25.0,29.87,NNE,16,0.0,-999.0,92,-99.99,,,0.00,16,weatherlink.com 1.10,2013-01-16 09:44:00,
2013-01-16 10:59:00,27.2,25.0,29.87,NNE,16,0.0,-999.0,92,-99.99,,,0.00,18,weatherlink.com 1.10,2013-01-16 09:59:00,
2013-01-16 11:14:00,27.4,25.0,29.87,NNE,16,0.0,-999.0,92,-99.99,,,0.00,14,weatherlink.com 1.10,2013-01-16 10:14:00,
2013-01-16 11:29:00,27.6,26.0,29.86,NNE,16,0.0,-999.0,92,-99.99,,,0.00,18,weatherlink.com 1.10,2013-01-16 10:29:00,
2013-01-16 11:44:00,27.8,26.0,29.86,NNE,16,0.0,-999.0,92,-99.99,,,0.00,14,weatherlink.com 1.10,2013-01-16 10:44:00,
2013-01-16 11:59:00,27.9,26.0,29.86,NNE,16,0.0,-999.0,92,-99.99,,,0.00,18,weatherlink.com 1.10,2013-01-16 10:59:00,
2013-01-16 12:14:00,27.9,26.0,29.86,East,94,0.0,-999.0,92,-99.99,,,0.00,14,weatherlink.com 1.10,2013-01-16 11:14:00,
2013-01-16 12:29:00,28.0,26.0,29.85,East,94,0.0,-999.0,92,-99.99,,,0.00,12,weatherlink.com 1.10,2013-01-16 11:29:00,
2013-01-16 12:44:00,28.1,26.0,29.85,East,94,0.0,-999.0,91,-99.99,,,0.00,16,weatherlink.com 1.10,2013-01-16 11:44:00,
2013-01-16 12:59:00,28.1,26.0,29.84,East,94,0.0,-999.0,92,-99.99,,,0.00,16,weatherlink.com 1.10,2013-01-16 11:59:00,
2013-01-16 13:14:00,28.2,26.0,29.84,East,94,0.0,-999.0,91,-99.99,,,0.00,14,weatherlink.com 1.10,2013-01-16 12:14:00,
2013-01-16 13:29:00,28.3,26.0,29.84,East,94,0.0,-999.0,91,-99.99,,,0.00,14,weatherlink.com 1.10,2013-01-16 12:29:00,
2013-01-16 13:44:00,28.3,26.0,29.83,East,94,0.0,-999.0,91,-99.99,,,0.00,16,weatherlink.com 1.10,2013-01-16 12:44:00,
2013-01-16 13:59:00,28.4,26.0,29.83,North,3,0.0,-999.0,91,-99.99,,,0.00,12,weatherlink.com 1.10,2013-01-16 12:59:00,
2013-01-16 14:14:00,28.4,26.0,29.84,North,3,0.0,-999.0,91,-99.99,,,0.00,9,weatherlink.com 1.10,2013-01-16 13:14:00,
2013-01-16 14:29:00,28.4,26.0,29.84,North,3,0.0,-999.0,91,-99.99,,,0.00,11,weatherlink.com 1.10,2013-01-16 13:29:00,
2013-01-16 14:44:00,28.4,26.0,29.83,North,3,0.0,-999.0,91,-99.99,,,0.00,7,weatherlink.com 1.10,2013-01-16 13:44:00,
2013-01-16 14:59:00,28.3,26.0,29.83,North,3,0.0,-999.0,91,-99.99,,,0.00,7,weatherlink.com 1.10,2013-01-16 13:59:00,
2013-01-16 15:14:00,28.3,26.0,29.83,North,3,0.0,-999.0,91,-99.99,,,0.00,5,weatherlink.com 1.10,2013-01-16 14:14:00,
2013-01-16 15:29:00,28.2,26.0,29.83,North,3,0.0,-999.0,91,-99.99,,,0.00,5,weatherlink.com 1.10,2013-01-16 14:29:00,
2013-01-16 15:44:00,28.2,26.0,29.84,North,3,0.0,-999.0,91,-99.99,,,0.00,0,weatherlink.com 1.10,2013-01-16 14:44:00,
2013-01-16 15:59:00,28.1,26.0,29.84,North,3,0.0,-999.0,91,-99.99,,,0.00,0,weatherlink.com 1.10,2013-01-16 14:59:00,
2013-01-16 16:14:00,28.1,26.0,29.84,North,3,0.0,-999.0,91,-99.99,,,0.00,0,weatherlink.com 1.10,2013-01-16 15:14:00,
2013-01-16 16:29:00,28.1,26.0,29.84,North,3,0.0,-999.0,91,-99.99,,,0.00,0,weatherlink.com 1.10,2013-01-16 15:29:00,
2013-01-16 16:44:00,28.1,26.0,29.84,North,4,0.0,-999.0,91,-99.99,,,0.00,0,weatherlink.com 1.10,2013-01-16 15:44:00,
2013-01-16 16:59:00,28.1,26.0,29.84,North,4,0.0,-999.0,92,-99.99,,,0.00,0,weatherlink.com 1.10,2013-01-16 15:59:00,
2013-01-16 17:14:00,28.1,26.0,29.84,East,80,0.0,-999.0,91,-99.99,,,0.00,0,weatherlink.com 1.10,2013-01-16 16:14:00,
2013-01-16 17:29:00,28.0,26.0,29.84,East,81,0.0,-999.0,91,-99.99,,,0.00,0,weatherlink.com 1.10,2013-01-16 16:29:00,
2013-01-16 17:44:00,28.0,26.0,29.84,NE,50,0.0,-999.0,91,-99.99,,,0.00,0,weatherlink.com 1.10,2013-01-16 16:44:00,
2013-01-16 17:59:00,27.9,26.0,29.84,East,91,0.0,-999.0,91,-99.99,,,0.00,0,weatherlink.com 1.10,2013-01-16 16:59:00,
2013-01-16 18:14:00,27.8,26.0,29.84,East,85,0.0,-999.0,91,-99.99,,,0.00,0,weatherlink.com 1.10,2013-01-16 17:14:00,
2013-01-16 18:29:00,27.8,26.0,29.84,East,99,0.0,-999.0,91,-99.99,,,0.00,0,weatherlink.com 1.10,2013-01-16 17:29:00,
2013-01-16 18:59:00,27.7,26.0,29.83,East,99,0.0,-999.0,91,-99.99,,,0.00,0,weatherlink.com 1.10,2013-01-16 17:59:00,
2013-01-16 19:14:00,27.7,26.0,29.84,ENE,59,0.0,-999.0,91,-99.99,,,0.00,0,weatherlink.com 1.10,2013-01-16 18:14:00,
2013-01-16 19:29:00,27.7,26.0,29.84,North,8,0.0,-999.0,91,-99.99,,,0.00,0,weatherlink.com 1.10,2013-01-16 18:29:00,
2013-01-16 19:44:00,27.7,26.0,29.84,ENE,65,0.0,-999.0,91,-99.99,,,0.00,0,weatherlink.com 1.10,2013-01-16 18:44:00,
2013-01-16 19:59:00,27.7,26.0,29.84,ENE,68,0.0,-999.0,91,-99.99,,,0.00,0,weatherlink.com 1.10,2013-01-16 18:59:00,
2013-01-16 20:14:00,27.6,25.0,29.84,NNE,15,1.0,-999.0,91,-99.99,,,0.00,0,weatherlink.com 1.10,2013-01-16 19:14:00,
2013-01-16 20:29:00,27.6,25.0,29.84,ESE,111,0.0,-999.0,91,-99.99,,,0.00,0,weatherlink.com 1.10,2013-01-16 19:29:00,
2013-01-16 20:44:00,27.6,25.0,29.84,ENE,62,0.0,-999.0,91,-99.99,,,0.00,0,weatherlink.com 1.10,2013-01-16 19:44:00,
2013-01-16 20:59:00,27.5,25.0,29.84,ENE,62,0.0,-999.0,91,-99.99,,,0.00,0,weatherlink.com 1.10,2013-01-16 19:59:00,
2013-01-16 21:14:00,27.6,25.0,29.85,ENE,62,0.0,-999.0,91,-99.99,,,0.00,0,weatherlink.com 1.10,2013-01-16 20:14:00,
2013-01-16 21:29:00,27.6,25.0,29.85,NNE,32,0.0,-999.0,91,-99.99,,,0.00,0,weatherlink.com 1.10,2013-01-16 20:29:00,
2013-01-16 21:44:00,27.6,25.0,29.84,NNE,26,0.0,-999.0,91,-99.99,,,0.00,0,weatherlink.com 1.10,2013-01-16 20:44:00,
2013-01-16 21:59:00,27.5,25.0,29.84,ENE,64,1.0,-999.0,91,-99.99,,,0.00,0,weatherlink.com 1.10,2013-01-16 20:59:00,
2013-01-16 22:14:00,27.5,25.0,29.84,ESE,102,0.0,-999.0,91,-99.99,,,0.00,0,weatherlink.com 1.10,2013-01-16 21:14:00,
2013-01-16 22:29:00,27.4,25.0,29.84,East,84,0.0,-999.0,91,-99.99,,,0.00,0,weatherlink.com 1.10,2013-01-16 21:29:00,
2013-01-16 22:44:00,27.3,25.0,29.85,ESE,106,0.0,-999.0,91,-99.99,,,0.00,0,weatherlink.com 1.10,2013-01-16 21:44:00,
2013-01-16 22:59:00,27.3,25.0,29.85,East,87,0.0,-999.0,91,-99.99,,,0.00,0,weatherlink.com 1.10,2013-01-16 21:59:00,
2013-01-16 23:14:00,27.2,25.0,29.85,East,96,0.0,-999.0,91,-99.99,,,0.00,0,weatherlink.com 1.10,2013-01-16 22:14:00,
2013-01-16 23:29:00,27.2,25.0,29.86,ESE,102,2.0,-999.0,91,-99.99,,,0.00,0,weatherlink.com 1.10,2013-01-16 22:29:00,
2013-01-16 23:44:00,27.1,25.0,29.85,NNW,348,2.0,-999.0,91,-99.99,,,0.00,0,weatherlink.com 1.10,2013-01-16 22:44:00,
2013-01-16 23:59:00,27.1,25.0,29.85,NE,42,0.0,-999.0,91,-99.99,,,0.00,0,weatherlink.com 1.10,2013-01-16 22:59:00,